| time (UTC) | temp F | wind direction | speed MPH | gust MPH | rain 1hr in | rain 24hr in | rain mn in | humidity % | barometer mb |
| 20260504004339 | 70 | 74 | 0.0 | 5.0 | 0.00 | 0.04 | 0.02 | 70 | 1018.7 |
| 20260504003840 | 70 | 61 | 0.0 | 1.0 | 0.00 | 0.04 | 0.02 | 70 | 1018.7 |
| 20260504003341 | 71 | 78 | 0.0 | 1.0 | 0.00 | 0.04 | 0.02 | 70 | 1018.7 |
| 20260504002841 | 71 | 58 | 0.0 | 2.0 | 0.00 | 0.04 | 0.02 | 69 | 1018.6 |
| 20260504002412 | 71 | 68 | 0.0 | 2.0 | 0.00 | 0.04 | 0.02 | 69 | 1018.5 |
| 20260504001829 | 71 | 80 | 0.0 | 4.0 | 0.00 | 0.04 | 0.02 | 68 | 1018.4 |
| 20260504001332 | 72 | 98 | 1.0 | 4.0 | 0.00 | 0.04 | 0.02 | 68 | 1018.4 |
| 20260504000833 | 72 | 42 | 0.0 | 5.0 | 0.00 | 0.04 | 0.02 | 68 | 1018.3 |
| 20260504000334 | 72 | 80 | 1.0 | 9.0 | 0.00 | 0.04 | 0.02 | 67 | 1018.2 |
| 20260503235834 | 72 | 69 | 2.0 | 9.0 | 0.00 | 0.04 | 0.02 | 66 | 1018.2 |
| 20260503235404 | 73 | 98 | 1.0 | 5.0 | 0.00 | 0.04 | 0.02 | 66 | 1018.1 |
| 20260503234843 | 73 | 92 | 1.0 | 3.0 | 0.00 | 0.04 | 0.02 | 65 | 1018.1 |
| 20260503234326 | 73 | 15 | 1.0 | 3.0 | 0.00 | 0.04 | 0.02 | 65 | 1018.0 |
| 20260503233828 | 73 | 76 | 1.0 | 6.0 | 0.00 | 0.04 | 0.02 | 64 | 1017.9 |
| 20260503233400 | 74 | 81 | 0.0 | 6.0 | 0.00 | 0.04 | 0.02 | 64 | 1018.0 |
| 20260503232840 | 74 | 360 | 1.0 | 4.0 | 0.00 | 0.04 | 0.02 | 63 | 1017.9 |
| 20260503232343 | 74 | 15 | 1.0 | 5.0 | 0.00 | 0.04 | 0.02 | 62 | 1018.0 |
| 20260503231841 | 74 | 72 | 1.0 | 5.0 | 0.00 | 0.04 | 0.02 | 62 | 1017.9 |
| 20260503231340 | 75 | 86 | 1.0 | 5.0 | 0.00 | 0.04 | 0.02 | 61 | 1017.9 |
| 20260503230841 | 75 | 76 | 1.0 | 7.0 | 0.00 | 0.04 | 0.02 | 61 | 1018.0 |
| 20260503230412 | 75 | 104 | 2.0 | 7.0 | 0.00 | 0.04 | 0.02 | 60 | 1018.0 |
| 20260503225852 | 75 | 136 | 1.0 | 9.0 | 0.00 | 0.04 | 0.02 | 60 | 1018.0 |
| 20260503225333 | 75 | 64 | 2.0 | 9.0 | 0.00 | 0.04 | 0.02 | 59 | 1018.0 |
| 20260503224834 | 76 | 64 | 2.0 | 7.0 | 0.00 | 0.04 | 0.02 | 59 | 1018.0 |
| 20260503224334 | 77 | 67 | 1.0 | 5.0 | 0.00 | 0.04 | 0.02 | 57 | 1018.0 |
| 20260503223904 | 77 | 63 | 1.0 | 4.0 | 0.00 | 0.04 | 0.02 | 57 | 1018.0 |
| 20260503223326 | 77 | 91 | 2.0 | 5.0 | 0.00 | 0.04 | 0.02 | 57 | 1017.9 |
| 20260503222828 | 78 | 77 | 3.0 | 5.0 | 0.00 | 0.04 | 0.02 | 56 | 1017.9 |
| 20260503222330 | 78 | 60 | 1.0 | 7.0 | 0.00 | 0.04 | 0.02 | 55 | 1017.8 |
| 20260503221829 | 78 | 51 | 1.0 | 8.0 | 0.00 | 0.04 | 0.02 | 55 | 1017.9 |
| 20260503221329 | 79 | 52 | 2.0 | 8.0 | 0.00 | 0.04 | 0.02 | 54 | 1017.8 |
| 20260503220830 | 79 | 123 | 1.0 | 8.0 | 0.00 | 0.04 | 0.02 | 55 | 1017.8 |
| 20260503220330 | 78 | 45 | 1.0 | 6.0 | 0.00 | 0.04 | 0.02 | 55 | 1017.9 |
| 20260503215830 | 78 | 130 | 1.0 | 9.0 | 0.00 | 0.05 | 0.02 | 56 | 1017.8 |
| 20260503215331 | 78 | 99 | 4.0 | 9.0 | 0.00 | 0.05 | 0.02 | 54 | 1017.8 |
| 20260503214833 | 79 | 93 | 2.0 | 8.0 | 0.00 | 0.05 | 0.02 | 55 | 1017.7 |
| 20260503214333 | 79 | 82 | 1.0 | 9.0 | 0.00 | 0.05 | 0.02 | 55 | 1017.6 |
| 20260503213904 | 78 | 61 | 2.0 | 11.0 | 0.00 | 0.05 | 0.02 | 55 | 1017.6 |
| 20260503213327 | 78 | 133 | 2.0 | 9.0 | 0.00 | 0.05 | 0.02 | 55 | 1017.6 |
| 20260503212828 | 79 | 82 | 1.0 | 9.0 | 0.00 | 0.05 | 0.02 | 54 | 1017.6 |
| 20260503212331 | 80 | 69 | 4.0 | 9.0 | 0.00 | 0.05 | 0.02 | 54 | 1017.5 |
| 20260503211836 | 80 | 49 | 2.0 | 8.0 | 0.00 | 0.05 | 0.02 | 53 | 1017.5 |
| 20260503211405 | 81 | 61 | 3.0 | 6.0 | 0.00 | 0.05 | 0.02 | 53 | 1017.5 |
| 20260503210847 | 81 | 68 | 1.0 | 4.0 | 0.00 | 0.05 | 0.02 | 53 | 1017.6 |
| 20260503210329 | 81 | 11 | 1.0 | 5.0 | 0.00 | 0.05 | 0.02 | 54 | 1017.6 |
| 20260503205831 | 81 | 73 | 2.0 | 5.0 | 0.00 | 0.15 | 0.02 | 53 | 1017.6 |
| 20260503205334 | 82 | 58 | 2.0 | 5.0 | 0.00 | 0.15 | 0.02 | 52 | 1017.7 |
| 20260503204837 | 82 | 5 | 1.0 | 4.0 | 0.00 | 0.15 | 0.02 | 54 | 1017.6 |
| 20260503204340 | 81 | 17 | 1.0 | 6.0 | 0.00 | 0.15 | 0.02 | 54 | 1017.8 |
| 20260503203841 | 81 | 83 | 2.0 | 9.0 | 0.00 | 0.15 | 0.02 | 52 | 1017.8 |
| 20260503203339 | 82 | 43 | 3.0 | 8.0 | 0.00 | 0.15 | 0.02 | 53 | 1017.9 |
| 20260503202839 | 81 | 38 | 1.0 | 6.0 | 0.00 | 0.15 | 0.02 | 54 | 1017.9 |
| 20260503202321 | 80 | 54 | 2.0 | 8.0 | 0.00 | 0.15 | 0.02 | 54 | 1017.9 |
| 20260503201825 | 80 | 65 | 2.0 | 8.0 | 0.00 | 0.15 | 0.02 | 53 | 1017.9 |
| 20260503201323 | 80 | 5 | 1.0 | 5.0 | 0.00 | 0.15 | 0.02 | 55 | 1018.0 |
| 20260503200826 | 80 | 74 | 2.0 | 8.0 | 0.00 | 0.15 | 0.02 | 55 | 1017.9 |
| 20260503200354 | 80 | 74 | 1.0 | 10.0 | 0.00 | 0.15 | 0.02 | 56 | 1018.0 |
| 20260503195832 | 80 | 44 | 3.0 | 10.0 | 0.00 | 0.17 | 0.02 | 54 | 1018.0 |
| 20260503195333 | 80 | 73 | 2.0 | 6.0 | 0.00 | 0.17 | 0.02 | 54 | 1018.0 |
| 20260503194833 | 81 | 76 | 1.0 | 10.0 | 0.00 | 0.17 | 0.02 | 53 | 1018.1 |
| 20260503194334 | 82 | 86 | 3.0 | 10.0 | 0.00 | 0.17 | 0.02 | 53 | 1018.2 |
| 20260503193842 | 81 | 44 | 2.0 | 7.0 | 0.00 | 0.17 | 0.02 | 56 | 1018.2 |
| 20260503193342 | 81 | 75 | 1.0 | 6.0 | 0.00 | 0.17 | 0.02 | 54 | 1018.4 |
| 20260503192911 | 80 | 71 | 1.0 | 9.0 | 0.00 | 0.17 | 0.02 | 55 | 1018.6 |
| 20260503192345 | 79 | 85 | 3.0 | 9.0 | 0.00 | 0.17 | 0.02 | 56 | 1018.7 |
| 20260503191846 | 80 | 73 | 2.0 | 5.0 | 0.00 | 0.17 | 0.02 | 56 | 1018.8 |
| 20260503191354 | 79 | 350 | 2.0 | 5.0 | 0.00 | 0.17 | 0.02 | 59 | 1018.8 |
| 20260503190904 | 79 | 5 | 1.0 | 6.0 | 0.00 | 0.17 | 0.02 | 56 | 1019.0 |
| 20260503190345 | 80 | 348 | 2.0 | 8.0 | 0.00 | 0.17 | 0.02 | 53 | 1019.0 |
| 20260503185849 | 79 | 71 | 3.0 | 8.0 | 0.00 | 0.17 | 0.02 | 58 | 1019.0 |
| 20260503185348 | 78 | 5 | 1.0 | 8.0 | 0.00 | 0.17 | 0.02 | 58 | 1019.0 |
| 20260503184849 | 78 | 27 | 3.0 | 10.0 | 0.00 | 0.17 | 0.02 | 56 | 1019.1 |
| 20260503184336 | 80 | 100 | 5.0 | 10.0 | 0.00 | 0.17 | 0.02 | 55 | 1019.2 |
| 20260503183838 | 80 | 92 | 4.0 | 10.0 | 0.00 | 0.17 | 0.02 | 55 | 1019.2 |
| 20260503183342 | 79 | 95 | 3.0 | 7.0 | 0.00 | 0.17 | 0.02 | 56 | 1019.3 |
| 20260503182846 | 79 | 126 | 1.0 | 8.0 | 0.00 | 0.17 | 0.02 | 58 | 1019.3 |
| 20260503182346 | 81 | 92 | 4.0 | 11.0 | 0.00 | 0.17 | 0.02 | 57 | 1019.5 |
| 20260503181848 | 80 | 85 | 4.0 | 11.0 | 0.00 | 0.17 | 0.02 | 59 | 1019.4 |
| 20260503181349 | 80 | 108 | 3.0 | 8.0 | 0.00 | 0.17 | 0.02 | 56 | 1019.5 |
| 20260503180826 | 80 | 74 | 2.0 | 5.0 | 0.00 | 0.17 | 0.02 | 58 | 1019.5 |
| 20260503180355 | 80 | 71 | 2.0 | 6.0 | 0.00 | 0.17 | 0.02 | 56 | 1019.7 |
| 20260503175830 | 81 | 24 | 3.0 | 5.0 | 0.00 | 0.22 | 0.02 | 58 | 1019.6 |
| 20260503175329 | 80 | 87 | 2.0 | 6.0 | 0.00 | 0.22 | 0.02 | 57 | 1019.6 |
| 20260503174829 | 79 | 42 | 2.0 | 6.0 | 0.00 | 0.22 | 0.02 | 59 | 1019.7 |
| 20260503174332 | 79 | 25 | 2.0 | 5.0 | 0.00 | 0.22 | 0.02 | 58 | 1019.8 |
| 20260503173857 | 80 | 69 | 2.0 | 8.0 | 0.00 | 0.22 | 0.02 | 59 | 1019.8 |
| 20260503173337 | 79 | 66 | 2.0 | 7.0 | 0.00 | 0.22 | 0.02 | 60 | 1019.7 |
| 20260503172906 | 79 | 360 | 3.0 | 7.0 | 0.00 | 0.22 | 0.02 | 59 | 1019.8 |
| 20260503172345 | 77 | 86 | 4.0 | 8.0 | 0.00 | 0.22 | 0.02 | 59 | 1019.8 |
| 20260503171845 | 78 | 42 | 1.0 | 8.0 | 0.00 | 0.22 | 0.02 | 60 | 1019.9 |
| 20260503171347 | 78 | 163 | 1.0 | 6.0 | 0.00 | 0.22 | 0.02 | 61 | 1019.8 |
| 20260503170848 | 78 | 51 | 2.0 | 6.0 | 0.00 | 0.22 | 0.02 | 62 | 1020.0 |
| 20260503170349 | 78 | 66 | 1.0 | 6.0 | 0.00 | 0.22 | 0.02 | 60 | 1019.9 |
| 20260503150845 | 72 | 106 | 2.0 | 9.0 | 0.00 | 0.22 | 0.02 | 74 | 1020.3 |
| 20260503150341 | 71 | 9 | 2.0 | 5.0 | 0.00 | 0.22 | 0.02 | 76 | 1020.3 |
| 20260503131332 | 65 | 360 | 0.0 | 3.0 | 0.00 | 0.22 | 0.02 | 92 | 1019.4 |
| 20260503130833 | 64 | 40 | 1.0 | 3.0 | 0.00 | 0.22 | 0.02 | 92 | 1019.4 |
| 20260503130330 | 64 | 270 | 1.0 | 3.0 | 0.00 | 0.22 | 0.02 | 93 | 1019.3 |
| 20260503110407 | 63 | 331 | 0.0 | 1.0 | 0.00 | 0.22 | 0.02 | 93 | 1018.2 |
| 20260503090328 | 63 | 314 | 0.0 | 2.0 | 0.00 | 0.22 | 0.02 | 93 | 1017.4 |
| 20260503081334 | 64 | 42 | 0.0 | 1.0 | 0.00 | 0.22 | 0.02 | 93 | 1016.8 |
| 20260503080843 | 64 | 42 | 0.0 | 2.0 | 0.00 | 0.22 | 0.02 | 92 | 1016.7 |
| 20260503080346 | 64 | 44 | 0.0 | 2.0 | 0.00 | 0.22 | 0.02 | 92 | 1016.7 |
| 20260503072834 | 64 | 337 | 0.0 | 2.0 | 0.00 | 0.22 | 0.02 | 93 | 1016.7 |
| 20260503072331 | 64 | 337 | 0.0 | 2.0 | 0.00 | 0.22 | 0.02 | 92 | 1016.6 |
| 20260503071833 | 64 | 349 | 0.0 | 2.0 | 0.00 | 0.22 | 0.02 | 92 | 1016.5 |
| 20260503071335 | 64 | 15 | 0.0 | 2.0 | 0.00 | 0.22 | 0.02 | 92 | 1016.7 |
| 20260503070838 | 64 | 355 | 0.0 | 2.0 | 0.00 | 0.22 | 0.02 | 92 | 1016.8 |
| 20260503070341 | 64 | 355 | 0.0 | 3.0 | 0.00 | 0.22 | 0.02 | 92 | 1016.7 |
| 20260503060341 | 65 | 24 | 0.0 | 1.0 | 0.01 | 0.22 | 0.02 | 92 | 1016.9 |
| 20260503054854 | 65 | 24 | 0.0 | 1.0 | 0.01 | 0.22 | 0.02 | 92 | 1016.9 |
| 20260503054335 | 65 | 19 | 0.0 | 1.0 | 0.01 | 0.22 | 0.02 | 92 | 1017.0 |
| 20260503053837 | 65 | 19 | 0.0 | 0.0 | 0.01 | 0.22 | 0.02 | 91 | 1017.1 |
| 20260503053342 | 65 | 19 | 0.0 | 0.0 | 0.01 | 0.22 | 0.02 | 91 | 1017.2 |
| 20260503052833 | 65 | 19 | 0.0 | 0.0 | 0.01 | 0.22 | 0.02 | 91 | 1017.3 |
| 20260503052334 | 65 | 19 | 0.0 | 0.0 | 0.01 | 0.22 | 0.02 | 91 | 1017.4 |
| 20260503051835 | 65 | 19 | 0.0 | 0.0 | 0.01 | 0.22 | 0.02 | 91 | 1017.5 |
| 20260503051333 | 65 | 19 | 0.0 | 0.0 | 0.01 | 0.22 | 0.02 | 91 | 1017.4 |
| 20260503050903 | 65 | 19 | 0.0 | 0.0 | 0.00 | 0.21 | 0.01 | 91 | 1017.4 |
| 20260503050326 | 65 | 28 | 0.0 | 1.0 | 0.01 | 0.21 | 0.01 | 91 | 1017.2 |
| 20260503045827 | 65 | 28 | 0.0 | 2.0 | 0.01 | 0.21 | 0.01 | 91 | 1017.2 |
| 20260503045357 | 65 | 360 | 0.0 | 2.0 | 0.01 | 0.21 | 0.01 | 91 | 1017.2 |
| 20260503044904 | 65 | 355 | 0.0 | 1.0 | 0.02 | 0.21 | 0.01 | 91 | 1017.3 |
| 20260503044343 | 65 | 349 | 0.0 | 1.0 | 0.02 | 0.21 | 0.01 | 91 | 1017.1 |
| 20260503043843 | 65 | 350 | 0.0 | 2.0 | 0.02 | 0.21 | 0.01 | 90 | 1016.9 |
| 20260503043410 | 65 | 5 | 0.0 | 2.0 | 0.02 | 0.21 | 0.01 | 90 | 1016.7 |
| 20260503042847 | 66 | 360 | 1.0 | 2.0 | 0.03 | 0.21 | 0.01 | 90 | 1016.5 |
| 20260503042326 | 66 | 355 | 0.0 | 2.0 | 0.03 | 0.21 | 0.01 | 90 | 1016.4 |
| 20260503041827 | 66 | 348 | 0.0 | 4.0 | 0.03 | 0.21 | 0.01 | 90 | 1016.5 |
| 20260503041329 | 66 | 355 | 1.0 | 5.0 | 0.03 | 0.21 | 0.01 | 90 | 1016.6 |
| 20260503040831 | 67 | 5 | 1.0 | 5.0 | 0.02 | 0.20 | 0.00 | 90 | 1016.4 |
| 20260503040401 | 67 | 28 | 0.0 | 5.0 | 0.02 | 0.20 | 0.00 | 90 | 1016.2 |
| 20260503035908 | 68 | 9 | 1.0 | 4.0 | 0.02 | 0.20 | 0.00 | 90 | 1016.0 |
| 20260503035341 | 68 | 327 | 1.0 | 4.0 | 0.02 | 0.20 | 0.20 | 90 | 1015.9 |
| 20260503034842 | 69 | 11 | 1.0 | 8.0 | 0.01 | 0.19 | 0.19 | 90 | 1016.0 |
| 20260503034407 | 69 | 5 | 1.0 | 8.0 | 0.01 | 0.19 | 0.19 | 90 | 1015.6 |
| 20260503033846 | 69 | 28 | 0.0 | 1.0 | 0.01 | 0.19 | 0.19 | 90 | 1015.5 |
| 20260503033348 | 69 | 360 | 0.0 | 2.0 | 0.01 | 0.19 | 0.19 | 90 | 1015.4 |
| 20260503032849 | 69 | 61 | 0.0 | 2.0 | 0.00 | 0.18 | 0.18 | 90 | 1015.3 |
| 20260503032349 | 70 | 333 | 0.0 | 4.0 | 0.00 | 0.18 | 0.18 | 90 | 1015.3 |
| 20260503031829 | 70 | 339 | 1.0 | 4.0 | 0.00 | 0.18 | 0.18 | 90 | 1015.3 |
| 20260503031331 | 70 | 10 | 0.0 | 5.0 | 0.00 | 0.18 | 0.18 | 89 | 1015.2 |
| 20260503030832 | 70 | 13 | 1.0 | 5.0 | 0.00 | 0.18 | 0.18 | 89 | 1015.0 |
| 20260503030335 | 70 | 360 | 0.0 | 6.0 | 0.00 | 0.18 | 0.18 | 89 | 1015.0 |
| 20260503025834 | 71 | 355 | 1.0 | 6.0 | 0.00 | 0.18 | 0.18 | 89 | 1015.1 |
| 20260503025405 | 71 | 318 | 3.0 | 6.0 | 0.00 | 0.18 | 0.18 | 90 | 1015.2 |
| 20260503024839 | 72 | 313 | 1.0 | 4.0 | 0.00 | 0.18 | 0.18 | 90 | 1014.8 |
| 20260503024340 | 72 | 247 | 1.0 | 4.0 | 0.00 | 0.18 | 0.18 | 90 | 1014.6 |
| 20260503023911 | 72 | 263 | 1.0 | 7.0 | 0.00 | 0.18 | 0.18 | 90 | 1014.7 |
| 20260503023350 | 72 | 247 | 3.0 | 7.0 | 0.00 | 0.18 | 0.18 | 90 | 1014.6 |
| 20260503022849 | 72 | 247 | 0.0 | 4.0 | 0.00 | 0.18 | 0.18 | 90 | 1014.4 |
| 20260503022345 | 71 | 255 | 1.0 | 3.0 | 0.00 | 0.18 | 0.18 | 90 | 1014.4 |
| 20260503021826 | 71 | 261 | 0.0 | 6.0 | 0.00 | 0.18 | 0.18 | 90 | 1014.2 |
| 20260503021357 | 71 | 262 | 1.0 | 6.0 | 0.00 | 0.18 | 0.18 | 90 | 1014.2 |
| 20260503020836 | 71 | 257 | 1.0 | 3.0 | 0.00 | 0.18 | 0.18 | 90 | 1014.1 |
| 20260503020338 | 71 | 250 | 1.0 | 3.0 | 0.00 | 0.18 | 0.18 | 90 | 1014.0 |
| 20260503015838 | 71 | 256 | 1.0 | 4.0 | 0.00 | 0.18 | 0.18 | 90 | 1013.8 |
| 20260503015336 | 71 | 262 | 1.0 | 6.0 | 0.00 | 0.18 | 0.18 | 90 | 1013.5 |
| 20260503014838 | 71 | 259 | 1.0 | 6.0 | 0.00 | 0.18 | 0.18 | 90 | 1013.2 |
| 20260503014347 | 71 | 248 | 1.0 | 5.0 | 0.00 | 0.18 | 0.18 | 90 | 1013.2 |
| 20260503013846 | 71 | 252 | 1.0 | 2.0 | 0.00 | 0.18 | 0.18 | 90 | 1013.2 |
| 20260503013355 | 71 | 252 | 0.0 | 2.0 | 0.00 | 0.18 | 0.18 | 90 | 1013.3 |
| 20260503012833 | 71 | 249 | 0.0 | 2.0 | 0.00 | 0.18 | 0.18 | 90 | 1013.4 |
| 20260503012334 | 71 | 252 | 0.0 | 3.0 | 0.00 | 0.18 | 0.18 | 90 | 1013.2 |
| 20260503011835 | 71 | 254 | 0.0 | 2.0 | 0.00 | 0.18 | 0.18 | 90 | 1013.1 |
| 20260503011338 | 71 | 254 | 0.0 | 4.0 | 0.00 | 0.18 | 0.18 | 90 | 1013.1 |
| 20260503010840 | 71 | 254 | 1.0 | 4.0 | 0.00 | 0.18 | 0.18 | 90 | 1013.1 |
| 20260503010344 | 71 | 261 | 1.0 | 3.0 | 0.00 | 0.18 | 0.18 | 90 | 1013.1 |
| 20260503005825 | 71 | 250 | 0.0 | 4.0 | 0.00 | 0.18 | 0.18 | 90 | 1012.9 |
| 20260503005324 | 71 | 248 | 1.0 | 4.0 | 0.00 | 0.18 | 0.18 | 90 | 1013.0 |
| 20260503004850 | 71 | 252 | 1.0 | 4.0 | 0.00 | 0.18 | 0.18 | 90 | 1012.9 |